Probability
0 0 0 0 0 0 0 0 0 0 0 0 0 0 0 0 0 0 0 0 0 0 0 0 0 0 0 0 0 0 0 0 0 0 0 0 0 0 0 0 0 0 0
0 0 0 0 0 0 0 0 0 0 0 0 0 0 0 0 0 0 0 0 0 0 0 0 0 0 0 0 0 0 0 0 0 0 0 0 0 0 0 0 0 0 0
0 0 0 0 0 0 0 0 0 0 0 0 0 0 0 0 0 0 0 0 0 0 0 0 0 0 0 0 0 0 0 0 0 0 0 0 0 0 0 0 0 0 0
0 0 0 0 0 0 0 0 0 0 0 0 0 0 0 0 0 0 0 0 0 0 0 0 0 0 0 0 0 0 0 0 0 0 0 0 0 0 0 0 0 0 0
0 0 0 0 0 0 0 0 0 0 0 0 0 0 0 0 0 0 0 0 0 0 0 0 0 0 0 0 0 0 0 0 0 0 0 0 0 0 0 0 0 0 0
0 0 0 0 0 0 0 0 0 0 0 0 0 0 0 0 0 0 0 0 0 0 0 0 0 0 0 0 0 0 0 0 0 0 0 0 0 0 0 0 0 0 0
0 0 0 0 0 0 0 0 0 0 0 0 0 0 0 0 0 0 0 0 0 0 0 0 0 0 0 0 0 0 0 0 0 0 0 0 0 0 0 0 0 0 0
0 0 0 0 0 0 0 0 0 0 0 0 0 0 0 0 0 0 0 0 0 0 0 0 0 0 0 0 0 0 0 0 0 0 0 0 0 0 0 0 0 0 0
0 0 0 0 0 0 0 0 0 0 0 0 0 0 0 0 0 0 0 0 0 0 0 0 0 0 0 0 0 0 0 0 0 0 0 0 0 0 0 0 0 0 0
0 0 0 0 0 0 0 0 0 0 0 0 0 0 0 0 0 0 0 0 0 0 0 0 0 0 0 0 0 0 0 0 0 0 0 0 0 0 0 0 0 0 0
0 0 0 0 0 0 0 0 0 0 0 0 0 0 0 0 0 0 0 0 0 0 0 0 0 0 0 0 0 0 0 0 0 0 0 0 0 0 0 0 0 0 0
0 0 0 0 0 0 0 0 0 0 0 0 0 0 0 0 0 0 0 0 0 0 0 0 0 0 0 0 0 0 0 0 0 0 0 0 0 0 0 0 0 0 0
0 0 0 0 0 0 0 0 0 0 0 0 0 0 0 0 0 0 0 0 0 0 0 0 0 0 0 0 0 0 0 0 0 0 0 0 0 0 0 0 0 0 0
0 0 0 0 0 0 0 0 0 0 0 0 0 0 0 0 0 0 0 0 0 0 0 0 0 0 0 0 0 0 0 0 0 0 0 0 0 0 0 0 0 0 0
0 0 0 0 0 0 0 0 0 0 0 0 0 0 0 0 0 0 0 0 0 0 0 0 0 0 0 0 0 0 0 0 0 0 0 0 0 0 0 0 0 0 0
0 0 0 0 0 0 0 0 0 0 0 0 0 0 0 0 0 0 0 0 0 0 0 0 0 0 0 0 0 0 0 0 0 0 0 0 0 0 0 0 0 0 0
0 0 0 0 0 0 0 0 0 0 0 0 0 0 0 0 0 0 0 0 0 0 0 0 0 0 0 0 0 0 0 0 0 0 0 0 0 0 0 0 0 0 0
0 0 0 0 0 0 0 0 0 0 0 0 0 0 0 0 0 0 0 0 0 0 0 0 0 0 0 0 0 0 0 0 0 0 0 0 0 0 0 0 0 0 0
0 0 0 0 0 0 0 0 0 0 0 0 0 0 0 0 0 0 0 0 0 0 0 0 0 0 0 0 0 0 0 0 0 0 0 0 0 0 0 0 0 0 0
0 0 0 0 0 0 0 0 0 0 0 0 0 0 0 0 0 0 0 0 0 0 0 0 0 0 0 0 0 0 0 0 0 0 0 0 0 0 0 0 0 0 0
0 0 0 0 0 0 0 0 0 0 0 0 0 0 0 0 0 0 0 0 0 0 0 0 0 0 0 0 0 0 0 0 0 0 0 0 0 0 0 0 0 0 0
0 0 0 0 0 0 0 0 0 0 0 0 0 0 0 0 0 0 0 0 0 0 0 0 0 0 0 0 0 0 0 0 0 0 0 0 0 0 0 0 0 0 0
0 0 0 0 0 0 0 0 0 0 0 0 0 0 0 0 0 0 0 0 0 0 0 0 0 0 0 0 0 0 0 0 0 0 0 0 0 0 0 0 0 0 0
0 0 0 0 0 0 0 0 0 0 0 0 0 0 0 0 0 0 0 0 0 0 0 0 0 0 0 0 0 0 0 0 0 0 0 0 0 0 0 0 0 0 0
0 0 0 0 0 0 0 0 0 0 0 0 0 0 0 0 0 0 0 0 0 0 0 0 0 0 0 0 0 0 0 0 0 0 0 0 0 0 0 0 0 0 0
0 0 0 0 0 0 0 0 0 0 0 0 0 0 0 0 0 0 0 0 0 0 0 0 0 0 0 0 0 0 0 0 0 0 0 0 0 0 0 0 0 0 0
Wind_Speed
17 17 15 15 14 12 12 14 13 13 14 15 15 14 14 13 11 9 8 9 9 8 6 6 5 4 3 3 4 5 5 6 11 12 4 4 8 12 12 10 11 14 14
16 14 15 13 13 15 15 14 15 15 15 15 15 15 14 12 11 11 11 10 9 10 8 7 6 5 6 5 5 6 6 6 7 16 15 10 13 13 14 14 14 13 14
13 14 15 14 16 18 17 15 16 16 15 15 15 15 14 13 12 11 10 10 9 9 9 8 7 7 7 6 6 6 5 6 8 12 18 14 13 13 16 16 15 13 15
15 16 18 19 20 18 15 15 16 16 17 16 15 14 13 13 13 12 12 11 10 9 9 8 8 9 8 7 6 7 7 7 9 12 15 16 15 15 14 15 17 10 13
16 18 20 17 14 13 14 15 16 16 16 16 15 13 13 12 12 14 13 12 11 10 9 8 9 10 12 9 7 6 7 7 9 11 14 16 16 15 15 14 19 17 14
16 18 15 13 14 16 16 16 16 16 15 15 16 16 15 12 20 24 16 12 11 10 10 9 9 10 11 14 15 15 14 12 11 12 14 17 20 18 17 17 19 21 21
14 13 12 14 15 16 16 17 17 17 16 16 16 16 16 16 25 25 21 12 11 9 8 7 6 6 8 8 11 15 16 20 22 17 18 19 21 19 21 22 21 22 24
12 11 12 14 15 15 16 17 16 14 15 15 15 15 14 16 25 25 23 13 10 9 8 7 7 7 8 9 9 10 12 14 17 15 16 19 19 20 20 23 24 25 25
10 12 14 15 15 16 18 17 13 13 12 12 12 13 13 14 24 24 21 8 8 8 7 8 8 8 12 14 10 10 13 14 18 23 26 27 31 33 28 19 18 18 23
7 7 7 10 13 14 14 12 9 11 11 12 11 11 11 11 21 23 21 8 8 7 6 7 10 10 13 14 9 10 13 13 12 13 17 20 20 21 27 19 16 17 20
3 4 7 9 9 10 10 10 11 11 11 11 11 10 11 11 18 23 22 9 9 7 6 6 7 11 13 15 14 10 14 15 11 11 12 13 13 13 14 14 15 15 19
3 5 7 9 9 9 11 11 11 12 13 11 11 11 9 10 13 18 23 17 13 7 6 5 6 10 12 15 12 12 18 15 6 8 10 11 12 12 13 15 18 19 20
4 6 7 9 9 11 13 14 12 12 11 11 11 11 10 9 12 21 22 20 18 9 7 9 8 9 10 9 11 14 11 6 6 8 11 12 12 14 16 16 18 18 21
7 7 8 10 11 12 11 12 13 13 13 12 12 12 11 11 10 10 9 10 12 8 5 3 1 5 6 6 7 7 6 7 8 10 12 13 14 14 15 15 16 16 17
9 8 9 9 11 11 11 11 13 12 14 14 12 12 14 12 15 19 13 8 6 6 6 3 1 0 2 3 4 5 6 7 8 9 11 13 14 15 15 15 16 16 18
9 10 9 9 9 10 10 8 18 15 20 23 20 16 13 17 26 25 22 19 17 15 7 3 2 2 3 4 5 6 6 7 8 10 11 12 14 15 17 16 16 16 18
13 11 9 9 10 11 11 11 10 14 20 22 23 23 20 26 28 25 23 20 17 13 5 3 2 3 3 4 4 6 7 8 9 10 11 13 14 15 16 17 17 17 18
14 12 11 10 10 11 11 11 11 12 13 12 18 24 26 28 27 25 24 17 9 5 3 3 3 3 4 4 4 6 7 9 9 10 11 12 14 15 16 17 17 19 19
14 11 10 9 9 10 10 11 11 12 12 12 12 18 23 25 25 24 18 7 7 5 4 3 3 3 4 4 4 5 7 9 10 11 11 13 14 15 16 18 18 22 21
12 14 12 10 10 10 11 11 12 12 13 13 14 14 13 14 12 10 5 6 6 5 4 3 3 3 4 4 5 5 6 8 10 10 11 13 13 14 17 21 19 19 18
9 10 14 11 10 11 11 11 12 12 12 11 11 14 20 13 11 10 8 7 6 5 4 3 3 3 4 4 4 5 7 8 9 10 11 13 14 15 16 17 19 19 19
7 8 9 9 9 9 10 10 10 11 11 12 11 15 21 10 9 8 7 6 4 3 3 2 3 4 4 5 5 5 7 9 10 10 12 14 14 15 16 17 19 20 20
7 9 8 8 8 10 9 9 9 10 10 11 12 11 10 9 8 8 7 5 4 3 2 2 3 5 5 5 5 6 8 10 10 11 14 15 14 15 16 18 22 23 22
8 8 8 8 8 8 9 9 9 10 10 10 10 9 9 8 8 8 6 4 3 2 2 2 4 7 10 8 6 7 8 10 11 12 17 14 14 15 16 18 20 23 22
8 8 8 8 8 8 9 9 9 9 9 9 9 9 8 8 7 6 5 4 3 2 3 3 4 6 9 11 11 10 13 17 16 15 12 10 13 16 17 19 19 22 22
8 8 7 7 7 8 8 9 9 9 8 8 8 8 8 7 6 5 4 3 2 1 3 4 6 8 10 10 12 15 16 18 19 18 9 8 12 14 17 16 21 20 22
Wind_Direction
202 203 202 200 196 189 190 189 181 175 171 174 175 173 173 175 174 174 174 175 168 150 149 162 177 185 207 215 228 238 245 250 274 287 272 301 306 302 300 293 290 289 289
205 201 203 196 188 192 195 187 178 176 174 174 173 172 173 175 175 176 175 179 171 157 159 168 181 191 213 221 229 240 247 252 271 293 302 306 304 304 298 293 291 287 285
200 199 200 196 195 199 196 184 178 174 171 172 172 174 173 173 175 178 176 178 170 158 161 176 187 199 216 220 226 238 249 260 267 284 295 302 302 301 299 293 287 281 280
200 202 204 203 202 200 189 180 176 172 171 174 176 174 170 170 174 176 174 174 166 163 169 183 195 207 217 222 229 239 251 262 270 277 285 294 296 297 293 297 297 285 281
203 206 210 205 195 182 178 177 174 173 174 172 170 169 168 170 177 177 176 174 167 166 176 192 204 212 222 227 230 232 243 257 266 273 281 289 291 296 296 297 295 296 284
206 212 206 188 181 181 178 175 173 172 170 170 172 172 174 179 187 184 176 171 166 169 181 196 208 213 228 244 252 256 256 259 264 270 278 282 287 292 295 294 295 294 293
209 207 190 182 182 181 176 174 176 174 171 173 174 175 179 186 188 184 178 165 166 174 183 193 209 216 219 239 257 267 270 271 270 273 277 279 286 291 292 290 285 284 283
207 198 185 181 181 176 176 180 177 173 175 177 177 177 176 189 188 184 179 169 169 173 184 199 217 230 236 245 251 259 264 266 270 271 272 277 280 283 281 283 284 284 281
208 199 188 182 178 177 182 182 175 172 173 173 171 173 175 187 189 184 175 158 165 174 189 207 221 233 247 260 268 269 273 273 279 280 280 284 286 290 291 291 289 288 287
228 206 179 176 179 182 180 170 164 165 164 164 170 174 175 180 189 185 172 159 163 174 193 217 226 234 251 265 266 267 274 281 286 288 287 289 290 289 287 280 281 282 283
226 169 165 169 171 165 158 159 159 161 159 166 165 170 173 179 192 186 180 163 168 171 191 209 224 244 260 271 277 276 282 291 290 295 295 291 286 281 280 276 274 275 280
185 167 164 161 157 155 155 157 162 163 163 166 166 169 173 177 191 191 187 177 173 170 190 205 226 253 270 282 288 286 294 303 302 294 288 285 285 285 283 283 280 276 272
199 181 168 161 159 162 163 164 168 173 174 176 176 175 173 172 186 191 188 183 183 170 181 206 233 268 289 295 293 297 306 300 287 285 286 287 287 288 290 288 284 280 276
213 196 178 172 171 171 174 174 179 183 184 183 183 179 170 169 177 177 174 175 181 177 166 163 294 298 288 285 292 297 291 282 284 286 288 290 293 293 291 292 293 293 290
218 201 190 187 180 181 187 191 191 195 192 184 183 176 170 173 181 174 160 156 155 159 133 106 108 224 258 269 277 283 286 287 287 288 292 295 295 294 294 295 294 294 293
225 207 197 191 185 182 183 192 206 199 204 201 192 182 179 174 167 167 165 169 174 165 138 135 162 217 248 266 282 292 292 291 292 293 292 292 293 295 296 297 297 296 295
229 214 198 193 189 183 181 180 187 196 202 203 194 183 172 164 162 162 163 164 160 150 128 148 183 223 248 263 276 285 290 292 294 291 289 291 292 294 296 300 302 299 296
231 215 200 194 190 185 181 179 179 177 179 181 179 171 166 160 158 157 155 142 134 117 132 164 198 229 249 262 276 285 289 293 292 290 290 291 290 293 300 303 303 301 299
231 214 199 188 182 180 177 176 177 176 167 159 154 160 159 155 153 151 142 133 147 150 159 181 208 234 251 261 270 278 283 287 287 289 290 291 292 298 304 305 303 302 300
230 210 187 178 174 174 175 176 174 170 163 162 160 154 150 145 140 134 122 135 141 151 168 191 217 240 253 260 266 273 283 285 288 288 292 294 295 303 307 307 306 305 302
214 191 174 169 172 173 174 174 170 164 164 163 153 160 156 144 142 143 144 146 152 163 177 196 228 251 256 258 261 271 279 282 284 288 295 295 301 309 309 307 306 305 304
168 159 161 163 163 167 167 163 160 160 160 152 152 161 145 131 138 142 142 146 152 166 178 195 241 251 253 255 259 270 277 280 283 289 296 297 306 312 311 310 310 310 310
125 135 140 143 146 147 146 146 149 152 154 158 161 145 135 139 140 139 141 144 155 176 188 203 246 263 258 251 248 250 261 270 278 288 294 299 312 316 313 312 312 313 315
99 112 118 122 125 130 132 136 141 147 153 152 141 133 135 136 135 135 137 144 161 187 208 227 247 262 273 277 268 258 256 264 274 284 288 298 313 314 314 314 313 314 317
85 97 106 113 119 123 126 130 136 141 143 139 133 129 128 127 128 130 135 148 167 211 257 261 258 267 274 277 279 278 279 285 288 289 291 304 311 313 315 315 316 319 321
84 91 97 104 113 121 127 131 133 135 134 131 126 125 126 126 128 132 139 151 167 251 280 276 270 275 278 282 281 284 289 296 301 306 311 312 314 316 319 319 320 322 325